User: anonymous
Location: Heilwood
(40.6210°N, 78.9150°W)
Time: 09:56:31
(UTC-04:00)
Language:

BREEZE-M DEB (TANK) - Orbit

View from above orbital plane
View from above orbital plane
View from above satellite
View from above satellite

Ground track
Ground track

The orbit data is extracted from the following two-line orbital elements,

1 29649U 06056B   14112.14685795  .00005781  00000-0  98946-3 0  8866
2 29649 049.5386 351.5208 5426058 166.4491 352.1949 04.93187602130470
Epoch (UTC): 22 April 2014 03:31:28
Eccentricity: 0.5426058
inclination: 49.5386°
perigee height: 290 km
apogee height: 16111 km
right ascension of ascending node: 351.5208°
argument of perigee: 166.4491°
revolutions per day: 4.93187602
mean anomaly at epoch: 352.1949°
orbit number at epoch: 13047

The dashed part of the orbit path shows where the satellite is in the earth's shadow,  

DLR